RYR3EQ EBCI-ESSA

Flight info

Callsign RYR3EQ
Flight time N/A
Altitude 36000
Route CIV UY50 FERDI N873 VICOT DCT DOSUR/N0431F370 DCT DETSO/N0435F390 N873 ARS T317 ELTOK
Aircraft B738/M-SDE2E3FGHIRWXY/LB1

Departure

Time 2026-04-29 17:03
Airport Brussels South Charleroi Airport (EBCI)

Arrival

Time N/A
Airport Stockholm-Arlanda Airport (ESSA)
Time Latitude Longitude Altitude Speed Heading
2026-04-29 16:34 50.46731 4.46640 585 ft 0 kts 336°
2026-04-29 16:54 50.46723 4.46646 585 ft 3 kts 336°
2026-04-29 16:55 50.46708 4.46656 586 ft 3 kts 329°
2026-04-29 16:55 50.46695 4.46674 586 ft 3 kts 285°
2026-04-29 16:55 50.46695 4.46701 587 ft 3 kts 249°
2026-04-29 16:55 50.46700 4.46720 587 ft 2 kts 245°
2026-04-29 16:56 50.46701 4.46724 587 ft 2 kts 245°
2026-04-29 16:57 50.46699 4.46716 587 ft 4 kts 245°
2026-04-29 16:58 50.46675 4.46636 587 ft 11 kts 245°
2026-04-29 16:58 50.46629 4.46543 589 ft 9 kts 198°
2026-04-29 16:58 50.46564 4.46555 590 ft 10 kts 182°
2026-04-29 16:58 50.46508 4.46465 588 ft 15 kts 244°
2026-04-29 16:59 50.46452 4.46271 590 ft 23 kts 246°
2026-04-29 16:59 50.46384 4.46038 593 ft 23 kts 245°
2026-04-29 16:59 50.46318 4.45811 596 ft 23 kts 246°
2026-04-29 16:59 50.46252 4.45583 598 ft 22 kts 245°
2026-04-29 17:00 50.46188 4.45363 598 ft 22 kts 246°
2026-04-29 17:00 50.46125 4.45144 597 ft 22 kts 245°
2026-04-29 17:00 50.46061 4.44924 596 ft 22 kts 245°
2026-04-29 17:00 50.45997 4.44705 596 ft 22 kts 245°
2026-04-29 17:01 50.45933 4.44496 599 ft 21 kts 241°
2026-04-29 17:01 50.45852 4.44314 598 ft 20 kts 232°
2026-04-29 17:01 50.45760 4.44130 594 ft 22 kts 232°
2026-04-29 17:01 50.45688 4.44000 593 ft 12 kts 213°
2026-04-29 17:02 50.45634 4.44039 593 ft 7 kts 102°
2026-04-29 17:02 50.45644 4.44114 593 ft 8 kts 67°
2026-04-29 17:02 50.45735 4.44425 598 ft 67 kts 65°
2026-04-29 17:02 50.46032 4.45445 595 ft 135 kts 65°
2026-04-29 17:03 50.46443 4.46910 1186 ft 149 kts 68°
2026-04-29 17:03 50.46870 4.48303 2297 ft 140 kts 60°
2026-04-29 17:03 50.47632 4.49399 2758 ft 167 kts 28°
2026-04-29 17:03 50.48814 4.50052 2955 ft 189 kts 39°
2026-04-29 17:04 50.49603 4.51723 3139 ft 200 kts 65°
2026-04-29 17:04 50.50514 4.53527 3305 ft 229 kts 38°
2026-04-29 17:04 50.52071 4.54472 3748 ft 254 kts 14°
2026-04-29 17:04 50.53897 4.54273 4287 ft 275 kts 347°
2026-04-29 17:05 50.55663 4.53351 4951 ft 281 kts 347°
2026-04-29 17:05 50.57541 4.52396 5624 ft 284 kts 347°
2026-04-29 17:05 50.59429 4.51437 6380 ft 286 kts 346°
2026-04-29 17:05 50.61311 4.50479 7197 ft 284 kts 346°
2026-04-29 17:06 50.63202 4.49513 7968 ft 286 kts 346°
2026-04-29 17:06 50.65105 4.48539 8711 ft 289 kts 346°
2026-04-29 17:06 50.67027 4.47556 9490 ft 291 kts 347°
2026-04-29 17:06 50.68960 4.46564 10292 ft 294 kts 347°
2026-04-29 17:07 50.70913 4.45564 10736 ft 309 kts 346°
2026-04-29 17:07 50.73065 4.44467 10956 ft 331 kts 345°
2026-04-29 17:07 50.75262 4.43339 11457 ft 340 kts 345°
2026-04-29 17:07 50.77554 4.42155 12191 ft 343 kts 346°
2026-04-29 17:08 50.79803 4.40990 12958 ft 345 kts 345°
2026-04-29 17:08 50.82079 4.39808 13860 ft 345 kts 346°
2026-04-29 17:08 50.84372 4.38621 14558 ft 349 kts 346°
2026-04-29 17:08 50.86692 4.37420 15279 ft 352 kts 346°
2026-04-29 17:09 50.89025 4.36209 16062 ft 354 kts 345°
2026-04-29 17:09 50.91379 4.34986 16757 ft 358 kts 345°
2026-04-29 17:09 50.93760 4.33751 17462 ft 362 kts 345°
2026-04-29 17:09 50.96163 4.32501 18214 ft 364 kts 344°
2026-04-29 17:10 50.98580 4.31242 18872 ft 368 kts 345°
2026-04-29 17:10 51.01028 4.29967 19413 ft 373 kts 345°
2026-04-29 17:10 51.03513 4.28672 19957 ft 379 kts 345°
2026-04-29 17:10 51.06029 4.27359 20546 ft 382 kts 345°
2026-04-29 17:11 51.08569 4.26031 21118 ft 386 kts 345°
2026-04-29 17:11 51.11136 4.24687 21660 ft 391 kts 345°
2026-04-29 17:11 51.13737 4.23324 22198 ft 395 kts 345°
2026-04-29 17:11 51.16362 4.21947 22734 ft 399 kts 345°
2026-04-29 17:12 51.19012 4.20554 23270 ft 403 kts 345°
2026-04-29 17:12 51.21692 4.19144 23793 ft 407 kts 346°
2026-04-29 17:12 51.24395 4.17720 24248 ft 411 kts 346°
2026-04-29 17:12 51.26197 4.16770 24552 ft 412 kts 346°
2026-04-29 17:13 51.29854 4.14839 25154 ft 416 kts 346°
2026-04-29 17:13 51.32607 4.13382 25614 ft 418 kts 346°
2026-04-29 17:13 51.35378 4.11915 26086 ft 420 kts 346°
2026-04-29 17:13 51.38158 4.10441 26533 ft 422 kts 346°
2026-04-29 17:14 51.40960 4.08954 26969 ft 425 kts 346°
2026-04-29 17:14 51.43776 4.07483 27373 ft 426 kts 349°
2026-04-29 17:14 51.46686 4.06952 27730 ft 419 kts
2026-04-29 17:14 51.49494 4.07968 28182 ft 411 kts 25°
2026-04-29 17:15 51.51995 4.10098 28599 ft 406 kts 40°
2026-04-29 17:15 51.54188 4.12964 29009 ft 407 kts 43°
2026-04-29 17:15 51.56336 4.15939 29366 ft 409 kts 44°
2026-04-29 17:15 51.58487 4.18966 29717 ft 412 kts 44°
2026-04-29 17:16 51.60648 4.22010 30098 ft 414 kts 44°
2026-04-29 17:16 51.62821 4.25056 30456 ft 415 kts 43°
2026-04-29 17:16 51.65004 4.28098 30874 ft 414 kts 43°
2026-04-29 17:16 51.67176 4.31113 31358 ft 411 kts 43°
2026-04-29 17:17 51.69336 4.34105 31822 ft 409 kts 43°
2026-04-29 17:17 51.71491 4.37089 32228 ft 408 kts 43°
2026-04-29 17:17 51.73641 4.40067 32616 ft 407 kts 43°
2026-04-29 17:17 51.75783 4.43036 33057 ft 405 kts 43°
2026-04-29 17:18 51.77914 4.45993 33485 ft 403 kts 43°
2026-04-29 17:18 51.80040 4.48948 33865 ft 402 kts 43°
2026-04-29 17:18 51.82156 4.51893 34233 ft 402 kts 43°
2026-04-29 17:18 51.84244 4.54802 34572 ft 400 kts 43°
2026-04-29 17:19 51.86353 4.57746 34846 ft 401 kts 43°
2026-04-29 17:19 51.88467 4.60700 35102 ft 401 kts 43°
2026-04-29 17:19 51.90578 4.63654 35378 ft 401 kts 43°
2026-04-29 17:19 51.92690 4.66612 35627 ft 402 kts 43°
2026-04-29 17:20 51.94117 4.68614 35793 ft 402 kts 43°
2026-04-29 17:20 51.96391 4.71807 36117 ft 401 kts 43°
2026-04-29 17:20 51.98499 4.74769 36304 ft 402 kts 43°
2026-04-29 17:20 52.00626 4.77765 36306 ft 406 kts 43°
2026-04-29 17:21 52.04878 4.83762 36305 ft 402 kts 43°
2026-04-29 17:21 52.09068 4.89683 36325 ft 398 kts 43°
2026-04-29 17:22 52.13061 4.95345 36327 ft 398 kts 43°
2026-04-29 17:22 52.17224 5.01262 36321 ft 397 kts 43°
2026-04-29 17:23 52.21377 5.07180 36320 ft 396 kts 43°
2026-04-29 17:23 52.25517 5.13095 36325 ft 395 kts 43°
2026-04-29 17:24 52.29650 5.19014 36337 ft 395 kts 43°
2026-04-29 17:24 52.33775 5.24938 36341 ft 395 kts 43°
2026-04-29 17:25 52.37898 5.30874 36347 ft 394 kts 43°
2026-04-29 17:25 52.42011 5.36811 36342 ft 395 kts 43°
2026-04-29 17:26 52.46127 5.42768 36349 ft 394 kts 43°